[[{"header":{"parameterUnit":"m.s-1","parameterCategory":1,"la1":30.2991,"la2":30.254,"lo1":-89.0895,"lo2":-89.0444,"dy":0.0017,"dx":0.0017,"nx":28,"ny":28,"refTime":"2023-07-22T03:00:00:Z","depth":0,"parameterNumber":2,"parameterNumberName":"U-component_of_WINDS"},"data":[0,0,0,0,0,0,0,0,0,0,0,0,0,0,0,0,0,0,0,0,0,0,0,0,0,0,0,0,0,0,0,0,0,0,0,0,0,0,0,0,0,0,0,0,0,0,0,0,0,0,0,0,0,0,0,0,0,0,5.6335,5.6337,0,5.6517,5.6519,5.6521,5.6464,5.646,5.6456,5.6453,5.6639,5.6647,5.6656,0,0,0,0,0,0,0,0,0,0,0,0,0,5.5938,5.5945,5.6335,5.6337,5.634,5.6517,5.6519,5.6521,5.6465,5.646,5.6455,5.6451,5.6636,5.6646,5.6657,0,0,0,0,0,0,0,0,0,0,0,0,0,5.6114,5.5948,5.6335,5.6333,5.6334,5.6516,5.6519,5.6522,5.6466,5.646,5.6454,5.6449,5.6633,5.6645,5.6658,5.6853,0,0,5.6697,5.6703,0,0,0,0,0,0,0,0,5.6104,5.6129,5.6331,5.6333,5.6335,5.6462,5.6447,5.6633,5.6467,5.6416,5.6453,5.6446,5.6585,5.6601,5.6648,5.6862,5.687,5.6698,5.6706,5.6712,5.6715,0,0,0,0,0,0,0,5.6092,5.6121,5.6407,5.6334,5.6336,5.6322,5.6341,5.6482,5.6531,5.642,5.6416,5.6438,5.6585,5.6636,5.6652,5.6872,5.6698,5.6709,5.6717,5.6722,5.7252,5.7258,0,0,0,0,0,0,5.6078,5.6111,5.6401,5.6412,5.6203,5.6334,5.6355,5.6427,5.6529,5.6539,5.6443,5.6435,5.6617,5.6637,5.6658,5.6891,5.6711,5.6724,5.6731,5.7246,5.7253,5.726,0,0,0,0,0,0,5.607,5.6105,5.6394,5.6261,5.6296,5.6347,5.6429,5.6434,5.6484,5.6546,5.6555,5.6486,5.6613,5.664,5.6804,5.6896,5.6729,5.6741,5.7238,5.7248,5.7257,5.7359,0,0,0,0,0,0,5.6059,5.6102,5.6177,5.6263,5.6304,5.6538,5.6434,5.6441,5.6507,5.6498,5.6589,5.6599,5.661,5.6785,5.6817,5.6911,5.6751,5.723,5.7242,5.7254,5.7347,5.7371,5.739,0,0,0,0,0,5.6045,5.6199,5.6181,5.6217,5.6398,5.6543,5.6566,5.6577,5.6514,5.659,5.6629,5.6596,5.6882,5.6803,5.6838,5.6937,5.7224,5.7239,5.7253,5.7338,5.7366,5.739,0,0,0,0,0,0,5.6124,5.6211,5.6191,5.6378,5.6454,5.6533,5.6628,5.6607,5.6702,5.6689,5.6698,5.6719,5.6887,5.6929,5.6839,5.713,5.7044,5.7066,5.7096,5.7124,5.7145,5.713,5.6762,0,0,0,0,0,5.6163,5.6273,5.6343,5.6501,5.654,5.6578,5.6641,5.6642,5.6721,5.6752,5.6804,5.6881,5.6988,5.7058,5.7161,5.7354,5.7371,5.7439,5.7461,5.7478,5.7496,5.7599,5.7629,5.7307,5.7307,5.7307,0,0,5.6245,5.6306,5.6375,5.6518,5.6577,5.669,5.6605,5.6729,5.6812,5.6771,5.6928,5.6969,5.7056,5.7234,5.7316,5.7274,5.7589,5.7496,5.751,5.7519,5.7617,5.7647,5.7674,5.7317,5.7315,5.7314,0,0,5.6451,5.6509,5.6646,5.6706,5.6795,5.6819,5.6852,5.6935,5.696,5.7118,5.7089,5.7189,5.7374,5.7435,5.7491,5.772,5.7691,5.7753,5.7865,5.7965,5.799,5.8012,5.8091,5.812,5.7771,5.7772,5.7772,0,5.6541,5.6711,5.6719,5.6845,5.6908,5.6876,5.7013,5.7071,5.719,5.7233,5.7186,5.7415,5.7471,5.7663,5.7718,5.7765,5.7802,5.7742,5.7986,5.8008,5.8029,5.8104,5.8134,5.7778,5.7778,5.7777,5.7776,0,5.6816,5.6934,5.7034,5.7147,5.7222,5.7353,5.7381,5.7455,5.745,5.7479,5.7639,5.7705,5.7819,5.7865,5.7862,5.8056,5.8027,5.7983,5.7896,5.8066,5.8137,5.8166,5.7788,5.7786,5.7784,5.7782,0,0,5.7077,5.7193,5.7229,5.7279,5.7375,5.7466,5.7595,5.7706,5.7768,5.7851,5.7958,5.8114,5.8073,5.8137,5.814,5.8228,5.8401,5.8173,5.8175,5.8211,5.8616,5.8646,5.868,5.8384,5.839,5.8394,5.8607,0,5.7289,5.7516,5.7526,5.7732,5.784,5.781,5.7922,5.7993,5.8023,5.8118,5.8152,5.8261,5.82,5.8238,5.8324,5.8362,5.8482,5.8347,5.8482,5.8487,5.8458,5.8717,5.8751,5.8949,5.8635,5.864,5.8644,0,5.7567,5.7657,5.7873,5.7951,5.7997,5.8098,5.8198,5.8291,5.8369,5.8385,5.8455,5.8445,5.8576,5.8486,5.8666,5.8573,5.8629,5.8656,5.8664,5.8675,5.8574,5.8732,5.9012,5.9041,5.8688,5.8684,5.8681,0,5.7732,5.7908,5.8059,5.8103,5.8199,5.827,5.8313,5.8386,5.8451,5.854,5.8581,5.8685,5.874,5.882,5.8837,5.8771,5.9016,5.8928,5.9031,5.903,5.9082,5.9078,5.9372,5.9123,5.9122,5.9122,5.9121,0,5.7967,5.8099,5.8134,5.8227,5.8374,5.8385,5.853,5.8568,5.8633,5.8732,5.8714,5.8807,5.8826,5.8923,5.8938,5.9082,5.9109,5.9123,5.9125,5.9124,5.9121,5.9159,5.9144,5.913,5.9128,5.9126,5.9125,0,5.8175,5.8204,5.8366,5.8443,5.8465,5.857,5.8636,5.8724,5.8752,5.8877,5.8907,5.8951,5.9064,5.9089,5.9224,5.9234,5.9404,5.9394,5.9377,5.9376,5.9476,5.9465,5.9802,5.9845,5.957,5.9573,5.9575,0,5.8322,5.8423,5.851,5.8575,5.8621,5.8726,5.8791,5.8806,5.8875,5.8971,5.9048,5.9158,5.9247,5.9429,5.9472,5.9574,5.9564,5.9676,5.958,5.9574,5.9563,5.9555,5.9564,5.9693,5.9696,5.9698,5.97,0,5.8578,5.8586,5.8682,5.8783,5.8861,5.8941,5.9018,5.9072,5.9096,5.9175,5.9289,5.9358,5.9495,5.9604,5.9706,5.975,5.9729,5.973,5.9759,5.9757,5.9742,5.9748,5.9424,5.9722,5.972,5.9718,5.9717,5.9716,5.8758,5.8845,5.892,5.9026,5.9085,5.9156,5.9242,5.928,5.9376,5.9487,5.949,5.9614,5.9689,5.9824,5.9873,5.997,5.9935,5.9978,5.9988,5.9997,6.0005,5.9728,5.9989,5.9988,5.9988,5.9987,5.9987,0,5.901,5.9056,5.9154,5.9261,5.9344,5.9318,5.94,5.9471,5.958,5.9652,5.9739,5.9869,5.9975,6.0026,6.013,6.0197,6.019,6.0224,6.0217,6.0227,6.0031,5.9994,6.0228,6.0228,6.0227,6.0227,6.0227,6.0227,5.9151,5.9297,5.9314,5.9488,5.9533,5.9654,5.9703,5.9768,5.9824,5.997,6.0058,6.009,6.0153,6.0261,6.0356,6.0368,6.0406,6.0444,6.0451,6.0266,6.0241,6.0218,6.0183,6.0452,6.0453,6.0638,6.064,6.0641]},{"header":{"parameterUnit":"m.s-1","parameterCategory":1,"la1":30.2991,"la2":30.254,"lo1":-89.0895,"lo2":-89.0444,"dy":0.0017,"dx":0.0017,"nx":28,"ny":28,"refTime":"2023-07-22T03:00:00:Z","depth":0,"parameterNumber":3,"parameterNumberName":"V-component_of_WINDS"},"data":[0,0,0,0,0,0,0,0,0,0,0,0,0,0,0,0,0,0,0,0,0,0,0,0,0,0,0,0,0,0,0,0,0,0,0,0,0,0,0,0,0,0,0,0,0,0,0,0,0,0,0,0,0,0,0,0,0,0,1.5442,1.5443,0,1.5526,1.5527,1.5528,1.5525,1.5524,1.5523,1.5522,1.5607,1.5611,1.5614,0,0,0,0,0,0,0,0,0,0,0,0,0,1.5278,1.5281,1.5442,1.5443,1.5444,1.5526,1.5527,1.5528,1.5525,1.5524,1.5523,1.5521,1.5606,1.561,1.5614,0,0,0,0,0,0,0,0,0,0,0,0,0,1.5354,1.5282,1.5442,1.5453,1.5454,1.5525,1.5527,1.5528,1.5526,1.5524,1.5522,1.5521,1.5605,1.561,1.5615,1.568,0,0,1.563,1.5632,0,0,0,0,0,0,0,0,1.535,1.536,1.545,1.5452,1.5454,1.5513,1.55,1.5579,1.5526,1.5499,1.5522,1.552,1.5577,1.5585,1.5604,1.5684,1.5688,1.5631,1.5634,1.5636,1.5637,0,0,0,0,0,0,0,1.5344,1.5356,1.5475,1.5451,1.5454,1.5453,1.5462,1.5515,1.5547,1.5501,1.5501,1.5511,1.5578,1.5599,1.5606,1.5689,1.563,1.5635,1.5638,1.564,1.5826,1.5828,0,0,0,0,0,0,1.5337,1.5352,1.5472,1.5478,1.5397,1.5457,1.5467,1.5496,1.5546,1.5552,1.5512,1.5511,1.5592,1.56,1.5609,1.5689,1.5636,1.564,1.5643,1.5824,1.5826,1.5828,0,0,0,0,0,0,1.5334,1.5348,1.5469,1.5415,1.543,1.5462,1.5494,1.5499,1.552,1.5555,1.556,1.5528,1.5591,1.5602,1.5662,1.5692,1.5643,1.5647,1.5822,1.5825,1.5827,1.5848,0,0,0,0,0,0,1.5329,1.5347,1.5372,1.5415,1.5433,1.5522,1.5496,1.5502,1.5528,1.5527,1.5571,1.5577,1.559,1.5655,1.5667,1.5698,1.5651,1.5819,1.5823,1.5827,1.5845,1.5852,1.5857,0,0,0,0,0,1.5323,1.5375,1.5374,1.5388,1.5466,1.5523,1.5533,1.5548,1.5531,1.5557,1.5579,1.5575,1.5686,1.5661,1.5675,1.5707,1.5818,1.5822,1.5826,1.5843,1.585,1.5857,0,0,0,0,0,0,1.5335,1.5381,1.538,1.5448,1.5482,1.5523,1.5556,1.5556,1.5595,1.5592,1.5608,1.5618,1.5678,1.5699,1.567,1.5773,1.575,1.5757,1.5757,1.5765,1.5771,1.5765,1.5655,0,0,0,0,0,1.5345,1.5388,1.5426,1.5482,1.5499,1.5524,1.555,1.5558,1.5594,1.5608,1.5635,1.5669,1.5711,1.5739,1.578,1.5848,1.5857,1.5877,1.5882,1.5887,1.5893,1.593,1.5938,1.5843,1.5843,1.5843,0,0,1.5368,1.5398,1.5424,1.5485,1.5512,1.5556,1.5537,1.5584,1.5616,1.5615,1.5674,1.5694,1.5733,1.5797,1.5827,1.5816,1.5922,1.5893,1.5896,1.59,1.5935,1.5944,1.5952,1.5846,1.5845,1.5845,0,0,1.543,1.5458,1.5507,1.5534,1.5576,1.5592,1.5603,1.5645,1.5658,1.5717,1.5717,1.5755,1.5828,1.5856,1.5879,1.595,1.5948,1.5963,1.5994,1.6029,1.6037,1.6044,1.6069,1.6077,1.5969,1.5969,1.5969,0,1.5453,1.5519,1.5532,1.558,1.5606,1.5606,1.5656,1.5682,1.5734,1.5752,1.5739,1.583,1.5857,1.5927,1.5944,1.5963,1.5976,1.5959,1.6035,1.6042,1.6048,1.6072,1.6081,1.5971,1.5971,1.597,1.597,0,1.5544,1.5589,1.5624,1.5674,1.5705,1.5753,1.5773,1.5802,1.5807,1.5824,1.5883,1.5915,1.5962,1.5979,1.5984,1.6049,1.6041,1.6031,1.6009,1.6059,1.6081,1.6091,1.5973,1.5972,1.5972,1.5972,0,0,1.5618,1.5674,1.5687,1.5709,1.5753,1.5789,1.5836,1.5882,1.5906,1.5941,1.5981,1.6042,1.6033,1.606,1.6068,1.6099,1.6152,1.6085,1.6086,1.6096,1.6224,1.6232,1.6242,1.615,1.6152,1.6154,1.6221,0,1.5685,1.577,1.5783,1.5857,1.5899,1.5899,1.594,1.5971,1.5988,1.6026,1.6044,1.6087,1.6072,1.6088,1.6118,1.6139,1.6178,1.6134,1.6187,1.6189,1.6178,1.6254,1.6262,1.6324,1.623,1.6232,1.6233,0,1.5775,1.5813,1.5891,1.5929,1.5947,1.5984,1.6026,1.6062,1.6097,1.6107,1.6136,1.614,1.6188,1.6163,1.6229,1.6199,1.6221,1.6234,1.6237,1.6243,1.6214,1.6262,1.6345,1.6354,1.6247,1.6246,1.6245,0,1.5821,1.5891,1.5947,1.5966,1.6012,1.6037,1.6057,1.6091,1.6117,1.6153,1.617,1.6212,1.6235,1.6267,1.6281,1.6262,1.6346,1.6322,1.6355,1.6355,1.6374,1.6373,1.6461,1.6388,1.6388,1.6387,1.6387,0,1.5895,1.5943,1.5968,1.6002,1.6055,1.6069,1.6121,1.614,1.617,1.6207,1.6209,1.6244,1.6262,1.6299,1.6311,1.6363,1.6373,1.6382,1.6385,1.6383,1.6381,1.6398,1.6394,1.639,1.6389,1.6389,1.6388,0,1.5955,1.5974,1.6035,1.6073,1.6083,1.6121,1.6152,1.6185,1.6201,1.6248,1.626,1.6285,1.6329,1.6347,1.6401,1.6408,1.6469,1.6468,1.6457,1.6458,1.649,1.6487,1.6592,1.6607,1.6524,1.6524,1.6525,0,1.6002,1.6038,1.608,1.6105,1.6126,1.6166,1.6193,1.6207,1.6235,1.6276,1.6304,1.6347,1.6383,1.6453,1.6476,1.6516,1.6517,1.6551,1.6523,1.6519,1.6517,1.6515,1.6518,1.6556,1.6557,1.6558,1.6558,0,1.6081,1.6088,1.6127,1.6168,1.6199,1.6233,1.6265,1.6285,1.6304,1.6335,1.638,1.6407,1.6462,1.6505,1.6546,1.6566,1.6565,1.6567,1.6576,1.6574,1.6566,1.6571,1.6471,1.6564,1.6564,1.6563,1.6563,1.6563,1.6136,1.6168,1.6202,1.6244,1.627,1.63,1.6332,1.6352,1.6389,1.6435,1.6441,1.6488,1.6521,1.6577,1.6598,1.6635,1.6626,1.664,1.6644,1.6647,1.6649,1.656,1.6642,1.6642,1.6642,1.6642,1.6642,0,1.6215,1.6237,1.6276,1.632,1.6353,1.6349,1.6384,1.6412,1.6454,1.6484,1.6519,1.657,1.6611,1.6637,1.6678,1.6703,1.6703,1.6713,1.6711,1.6716,1.6655,1.6642,1.6712,1.6712,1.6712,1.6712,1.6712,1.6712,1.6261,1.6315,1.6326,1.6392,1.6413,1.646,1.648,1.6507,1.6532,1.6588,1.6623,1.6639,1.6667,1.671,1.6747,1.6753,1.6768,1.6779,1.6784,1.6727,1.672,1.6713,1.6701,1.6782,1.6782,1.6842,1.6843,1.6843]}]]